| 
				
				
				
					
						
					 | 
				
				
				
					
					
					Asteroid 2011 GJ3
					
					
					
					
						
					
					
						
							(Preview)
						
						
						
						
							
						
							
								Orbital elements:
2011 GJ3                                                 Earth MOID = 0.0031 AU
Epoch 2011 Feb. 8.0 TT = JDT 2455600.5                  MPC
M 251.40864              (2000.0)            P               Q
n   0.81278969     Peri.  305.79099     +0.17602913     +0.98436381
a   1.1371487      Node   334.34529     -0.89827889     +0.15794719
e   0.2017439      Incl.    0.85390     -0.40262734     +0.07797801
P   1.21           H   26.1           G   0... 
							 
							
						 
						
					
				 | 
				
					
						Blobrana
					 | 
				
				
					
						2
					 | 
				
				
				
					
						
					 | 
				
				
					
						
					 | 
				
			
		
			
			
				
				
					
						 
					 | 
				
				
				
					
						
					 | 
				
				
				
					
					
					Asteroid 2011 HG
					
					
					
					
						
					
					
						
							(Preview)
						
						
						
						
							
						
							
								Orbital elements:
2011 HG                                                  Earth MOID = 0.1643 AU
Epoch 2011 Feb. 8.0 TT = JDT 2455600.5                  MPC
M 318.82349              (2000.0)            P               Q
n   0.23071015     Peri.  254.40202     +0.44840926     +0.87642723
a   2.6328427      Node    43.64921     -0.69126605     +0.46451963
e   0.6252460      Incl.   14.73070     -0.56663955     +0.12687331
P   4.27           H   21.0           G   0.... 
							 
							
						 
						
					
				 | 
				
					
						Blobrana
					 | 
				
				
					
						0
					 | 
				
				
				
					
						
					 | 
				
				
					
						
					 | 
				
			
		
			
			
				
				
					
						 
					 | 
				
				
				
					
						 
					 | 
				
				
				
					
					
					Asteroid 2011 DV
					
					
					
					
						
					
					
						
							(Preview)
						
						
						
						
							
						
							
								Orbital elements: 2011 DV                                             PHA, Earth MOID = 0.0071 AU Epoch 2011 Feb. 8.0 TT = JDT 2455600.5                  MPC M 123.37863              (2000.0)            P               Q n   1.06790416     Peri.  344.42613     +0.95070358     -0.29432741 a   0.9479408      Node    33.19863     +0.30014540     +0.79423060 e   0.0554076      Incl.   10.27242     +0.07794511     +0.53157231 P   0.92           H   20.6           G   0.15           U...     
							 
							
						 
						
					
				 | 
				
					
						Blobrana
					 | 
				
				
					
						2
					 | 
				
				
				
					
						
					 | 
				
				
					
						
					 | 
				
			
		
			
			
				
				
					
						 
					 | 
				
				
				
					
						
					 | 
				
				
				
					
					
					Asteroid 2011 GR59
					
					
					
					
						
					
					
						
							(Preview)
						
						
						
						
							
						
							
								Orbital elements:
2011 GR59                                                Earth MOID = 0.0088 AU
Epoch 2011 Feb. 8.0 TT = JDT 2455600.5                  MPC
M 277.73049              (2000.0)            P               Q
n   0.71179908     Peri.  112.02907     -0.19986099     +0.97968498
a   1.2423132      Node   146.42872     -0.90962835     -0.17924941
e   0.2405184      Incl.    1.71202     -0.36418657     -0.08992772
P   1.38           H   23.3           G... 
							 
							
						 
						
					
				 | 
				
					
						Blobrana
					 | 
				
				
					
						2
					 | 
				
				
				
					
						
					 | 
				
				
					
						
					 | 
				
			
		
			
			
				
				
					
						 
					 | 
				
				
				
					
						
					 | 
				
				
				
					
					
					Asteroid 2003 FF5
					
					
					
					
						
					
					
						
							(Preview)
						
						
						
						
							
						
							
								Asteroid 2003 FF5 will make a near-Earth flyby (0.055 AU) on the 24th April, 2011. EphemerisDate    TT    R. A. (2000) Decl.     Delta      r     Elong.  Phase     V 2011 04 19    09 05.21   +43 16.7    0.0571   1.012    96.5    80.3    19.8 2011 04 20    08 57.83   +46 35.9    0.0562   1.009    93.2    83.6    19.9 2011 04 21    08 49.22   +49 59.3    0.0554   1.006    89.9    86.9    20... 
							 
							
						 
						
					
				 | 
				
					
						Blobrana
					 | 
				
				
					
						0
					 | 
				
				
				
					
						
					 | 
				
				
					
						
					 | 
				
			
		
			
			
				
				
					
						 
					 | 
				
				
				
					
						
					 | 
				
				
				
					
					
					Asteroid 2007 BP102
					
					
					
					
						
					
					
						
							(Preview)
						
						
						
						
							
						
							
								Orbital elements:
2007 BP102
Epoch 2011 Feb. 8.0 TT = JDT 2455600.5                  MPC
M   3.62062              (2000.0)            P               Q
n   0.00847249     Peri.  125.30846     -0.65367966     -0.40007309
a  23.8302449      Node    45.22754     -0.44570670     -0.48246952
e   0.2563060      Incl.   64.80548     +0.61159499     -0.77920773
P 116.33           H   10.7           G   0.15           U   5 MPEC 2011 - H... 
							 
							
						 
						
					
				 | 
				
					
						Blobrana
					 | 
				
				
					
						0
					 | 
				
				
				
					
						
					 | 
				
				
					
						
					 | 
				
			
		
			
			
				
				
					
						 
					 | 
				
				
				
					
						
					 | 
				
				
				
					
					
					Asteroid 2011 FS6
					
					
					
					
						
					
					
						
							(Preview)
						
						
						
						
							
						
							
								Orbital elements:
2011 FS6                                                 Earth MOID = 0.1373 AU
Epoch 2011 Feb. 8.0 TT = JDT 2455600.5                  MPC
M 340.56299              (2000.0)            P               Q
n   0.27685003     Peri.  103.15669     -0.88839866     +0.45681582
a   2.3315228      Node   104.04077     -0.43725759     -0.81185462
e   0.5141365      Incl.    2.68620     -0.13983425     -0.36360883
P   3.56           H   24.3           G   0... 
							 
							
						 
						
					
				 | 
				
					
						Blobrana
					 | 
				
				
					
						2
					 | 
				
				
				
					
						
					 | 
				
				
					
						
					 | 
				
			
		
			
			
				
				
					
						 
					 | 
				
				
				
					
						
					 | 
				
				
				
					
					
					Asteroid 2011 FY22
					
					
					
					
						
					
					
						
							(Preview)
						
						
						
						
							
						
							
								Orbital elements:
2011 FY22                                                Earth MOID = 0.1590 AU
Epoch 2011 Feb. 8.0 TT = JDT 2455600.5                  MPC
M 341.94583              (2000.0)            P               Q
n   0.24810831     Peri.  337.31787     -0.85927852     +0.51115109
a   2.5082751      Node   233.43664     -0.46557544     -0.79704004
e   0.5359583      Incl.    1.36295     -0.21184884     -0.32163915
P   3.97           H   23.4           G... 
							 
							
						 
						
					
				 | 
				
					
						Blobrana
					 | 
				
				
					
						1
					 | 
				
				
				
					
						
					 | 
				
				
					
						
					 | 
				
			
		
			
			
				
				
					
						 
					 | 
				
				
				
					
						
					 | 
				
				
				
					
					
					Asteroid 1991 VG
					
					
					
					
						
					
					
						
							(Preview)
						
						
						
						
							
						
							
								A 10-metre object on a heliocentric orbit, now catalogued as 1991 VG, made a close approach to the Earth in 1991 December, and was discovered a month before perigee with the Spacewatch telescope at Kitt Peak. Its very Earth-like orbit and observations of rapid brightness fluctuations argued for it... 
							 
							
						 
						
					
				 | 
				
					
						Blobrana
					 | 
				
				
					
						0
					 | 
				
				
				
					
						
					 | 
				
				
					
						
					 | 
				
			
		
			
			
				
				
					
						 
					 | 
				
				
				
					
						
					 | 
				
				
				
					
					
					Asteroids 2004 KD19 AND 2004 OP15
					
					
					
					
						
					
					
						
							(Preview)
						
						
						
						
							
						
							
								Orbital elements:
2004 KD19
Epoch 2011 Feb. 8.0 TT = JDT 2455600.5                  MPC
M 176.40825              (2000.0)            P               Q
n   0.00417407     Peri.   62.49103     +0.38595315     -0.92251313
a  38.2028615      Node     4.80923     +0.83275191     +0.34694340
e   0.0182718      Incl.    2.12834     +0.39694386     +0.16911477
P 236              H    7.4           G   0.15           U   42004 OP15
Epoch 20... 
							 
							
						 
						
					
				 | 
				
					
						Blobrana
					 | 
				
				
					
						0
					 | 
				
				
				
					
						
					 | 
				
				
					
						
					 | 
				
			
		
			
			
				
				
					
						 
					 | 
				
				
				
					
						
					 | 
				
				
				
					
					
					Asteroid 2011 GV9
					
					
					
					
						
					
					
						
							(Preview)
						
						
						
						
							
						
							
								Orbital elements:
2011 GV9                                                 Earth MOID = 0.0596 AU
Epoch 2011 Feb. 8.0 TT = JDT 2455600.5                  MPC
M 322.59552              (2000.0)            P               Q
n   0.52321870     Peri.    2.61517     -0.86116437     +0.50794629
a   1.5252717      Node   207.93938     -0.46713877     -0.80604548
e   0.3019073      Incl.    2.40478     -0.20044277     -0.30377827
P   1.88           H   26.4           G   0.1... 
							 
							
						 
						
					
				 | 
				
					
						Blobrana
					 | 
				
				
					
						2
					 | 
				
				
				
					
						
					 | 
				
				
					
						
					 | 
				
			
		
			
			
				
				
					
						 
					 | 
				
				
				
					
						
					 | 
				
				
				
					
					
					Asteroid 2011 GD68
					
					
					
					
						
					
					
